Regional Weather Roundup
Issued by NWS Albany, NY

Current Version | Previous Version | Graphics & Text | Print | Product List | Glossary Off
Versions: 1 2 3 4 5 6 7 8 9 10 11 12 13 14 15 16 17 18 19 20 21 22 23 24 25 26 27

000
ASUS41 KALY 300610
RWRALY

NEW YORK STATE HOURLY WEATHER ROUNDUP
NATIONAL WEATHER SERVICE ALBANY NY
200 AM EDT MON MAY 30 2016

NOTE: "FAIR" INDICATES FEW OR NO CLOUDS BELOW 12,000 FEET WITH NO
SIGNIFICANT WEATHER AND/OR NO OBSTRUCTIONS TO VISIBILITY.

NYZ032-033-038>043-046>054-057>066-NYZ062>081-082-084-300700-
EAST


CITY           SKY/WX    TMP DP  RH WIND       PRES   REMARKS
ALBANY         LGT RAIN  71  62  73 S12       29.98F
GLENS FALLS    CLOUDY    69  66  90 W3        29.99S
POUGHKEEPSIE   CLOUDY    73  67  81 S3        30.01F
NEWBURGH       LGT RAIN  70  70 100 SW6       30.04F
MONTGOMERY     RAIN      70  68  93 W3        30.02F FOG
WHITE PLAINS   RAIN      68  67  96 CALM      30.03F FOG
ISLIP          CLOUDY    67  66  97 S7        30.04F
NEW YORK CITY  HVY RAIN  70  70 100 CALM      30.01F FOG
CENTRAL PARK   HVY RAIN  69  68  96 CALM      30.06F VSB 3/4
$$

NYZ005>009-017-018-044>046-055-056-300700-
CENTRAL


CITY           SKY/WX    TMP DP  RH WIND       PRES   REMARKS
FULTON         LGT RAIN  68  64  87 SE3       29.94F
SYRACUSE       CLOUDY    66  64  93 SE5       29.94F
ROME           CLOUDY    66  66 100 E5        29.98F
ELMIRA         CLOUDY    66  62  87 CALM      30.00F
BINGHAMTON     CLOUDY    65  64  97 CALM      30.04F
MONTICELLO     MOCLDY    64  63  94 CALM      30.08F
$$

NYZ026>034-041>043-087-300700-
NORTH


CITY           SKY/WX    TMP DP  RH WIND       PRES   REMARKS
WATERTOWN      CLOUDY    70  60  70 S6        29.92F
FORT DRUM      NOT AVBL
MASSENA        LGT RAIN  71  62  73 SW7       29.90F
SARANAC LAKE   MOCLDY    63  61  93 SW6       29.97F
PLATTSBURGH    CLOUDY    67  66  97 S5        29.92F
$$

NYZ001>004-010>016-019>021-085-300700-
WEST


CITY           SKY/WX    TMP DP  RH WIND       PRES   REMARKS
NIAGARA FALLS  PTCLDY    69  57  65 SW12      29.92F
BUFFALO        PTCLDY    69  55  60 S7        29.93F
DUNKIRK        LGT RAIN  70  58  65 S13       29.94F
JAMESTOWN      PTCLDY    61  54  77 S8        30.00F
WELLSVILLE     CLOUDY    64  57  78 S6        30.05F
ROCHESTER      CLOUDY    64  62  93 SW5       29.95F
PENN YAN       MOCLDY    65  63  93 SW7       29.99F
$$

             KEY
       WCI = WIND CHILL INDEX
       VSB = VISIBILITY
       HX  = HEAT INDEX
$$




USA.gov is the U.S. government's official web portal to all federal, state and local government web resources and services.